Regional Weather Roundup
Issued by NWS

Home | Current Version | Previous Version | Graphics & Text | Print | Product List | Glossary On
Versions: 1 2 3 4 5 6 7 8 9 10 11 12 13 14 15 16 17 18 19 20 21 22 23 24 25 26 27 28 29 30 31 32 33 34 35 36 37 38 39 40 41 42 43 44 45 46 47 48 49 50
000
ASUS43 KLOT 010100
RWRIL

ILLINOIS REGIONAL WEATHER ROUNDUP
NATIONAL WEATHER SERVICE CHICAGO/ROMEOVILLE IL
800 PM CDT FRI OCT 31 2014

NOTE: "FAIR" INDICATES FEW OR NO CLOUDS BELOW 12,000 FEET WITH NO
SIGNIFICANT WEATHER AND/OR OBSTRUCTIONS TO VISIBILITY.

* THESE STATIONS ARE NOT UNDER NWS QUALITY CONTROL. THEY ALSO MAY NOT
  REPORT WEATHER SUCH AS PRECIPITATION OR FOG.

ILZ001-002-007-009-015-016-024-010200-
NORTHWEST ILLINOIS

CITY           SKY/WX    TMP DP  RH WIND       PRES   REMARKS
MOLINE         CLEAR     37  18  46 N7        30.42R WCI  32
STERLING*      CLEAR     34  18  51 N8        30.40S WCI  27
SAVANNA*       CLEAR     34  18  52 N6        30.42R WCI  29
$$

ILZ003-004-008-010-011-017-018-010200-
NORTH CENTRAL ILLINOIS

CITY           SKY/WX    TMP DP  RH WIND       PRES   REMARKS
ROCKFORD       CLOUDY    37  18  46 N14G22    30.40R WCI  28
FREEPORT*      CLEAR     32  18  57 N8        30.41S WCI  25
ROCHELLE*      PTCLDY    35  18  50 N17G23    30.38R WCI  25
DE KALB*       CLOUDY    34  18  52 N14G22    30.36R WCI  25
$$

ILZ005-006-012>014-019>023-010200-
NORTHEAST ILLINOIS

CITY           SKY/WX    TMP DP  RH WIND       PRES   REMARKS
CHICAGO-OHARE  CLOUDY    37  20  50 N22G32    30.32R WCI  26
CHICAGO-MIDWAY FLURRIES  35  30  82 NW21G35   30.31R WCI  24
AURORA         CLOUDY    37  17  44 N21G26    30.34R WCI  26
LANSING*       MOCLDY    37  28  70 N18G32    30.28R WCI  27
WAUKEGAN       CLOUDY    36  19  50 N13G24    30.32S WCI  27
DUPAGE AIRPORT CLOUDY    37  18  46 N20G32    30.33R WCI  27
WHEELING       CLOUDY    38  20  48 N16G26    30.34S WCI  29
MORRIS*        CLOUDY    37  22  55 N10G16    30.32S WCI  29
NORTHERLY ISL    N/A     37  31  79 N38         N/A  WCI  23
$$

LMZ740>746-010200-
SOUTHERN LAKE MICHIGAN

STATION/POSITION SKY/WX   TEMP    WIND        PRES    VSBY  WAVE
                          AIR SEA DIR/SP/G                  HT/PER
                          (F)     (DEG/KT/KT) (MB)    (MI)  (FT/S)
SOUTHERN BUOY              40 47  350/ 29/ 35 1024.9R        15/10
WAUKEGAN HARBOR            37     350/ 16/ 24   N/A
HARRISON CRIB              39     350/ 37/ 45   N/A
BURNHAM HARBOR             38      10/ 33/ 35   N/A
CALUMET HARBOR             38     360/ 24/ 39 1024.3R
MICHIGAN CITY              41     360/ 40/ 48   N/A
$$

ILZ025>027-034>036-040-047-049-050-058-095>099-010200-
WEST-CENTRAL ILLINOIS

CITY           SKY/WX    TMP DP  RH WIND       PRES   REMARKS
QUINCY         CLEAR     34  21  59 N9        30.40R WCI  27
GALESBURG*     CLEAR     32  22  66 N7        30.40R WCI  26
$$

ILZ028>032-037-038-041>044-048-051>054-059>061-010200-
CENTRAL ILLINOIS

CITY           SKY/WX    TMP DP  RH WIND       PRES   REMARKS
PONTIAC        CLOUDY    38  22  52 N17G23    30.34R WCI  29
DECATUR        MOCLDY    37  23  56 N21G29    30.33R WCI  26
PEORIA         PTCLDY    38  19  46 N9G18     30.38R WCI  31
LINCOLN*       PTCLDY    38  22  53 N18G25    30.36S WCI  28
SPRINGFIELD    CLEAR     37  22  54 N12       30.37R WCI  29
TAYLORVILLE    NOT AVBL
$$

ILZ033-039-045-046-055>057-062-063-010200-
EAST-CENTRAL ILLINOIS

CITY           SKY/WX    TMP DP  RH WIND       PRES   REMARKS
CHAMPAIGN      PTCLDY    36  21  54 N24G36    30.27R WCI  24
MATTOON        MOCLDY    36  22  56 N21G29    30.27R WCI  25
$$

ILZ079-100>102-010200-
SOUTHWEST ILLINOIS

CITY           SKY/WX    TMP DP  RH WIND       PRES   REMARKS
BELLEVILLE     CLEAR     40  21  46 N8        30.34R
CAHOKIA*       CLEAR     42  23  46 N13G22    30.37R
SPARTA*        CLEAR     40  22  48 N9        30.34R
$$

ILZ064>066-069>071-074>076-080>082-084>086-088>090-092>094-010200-
SOUTH-CENTRAL ILLINOIS

CITY           SKY/WX    TMP DP  RH WIND       PRES   REMARKS
CARBONDALE     CLEAR     40  21  46 NW13G21   30.31R
CAIRO*         CLEAR     45  22  41 NW16      30.30R
MARION         CLOUDY    43  23  45 NW9G16    30.30R
MT. VERNON     CLEAR     39  21  48 N9G20     30.31R WCI  33
SALEM*         CLEAR     40  26  56 N15       30.32R
METROPOLIS*    PTCLDY    42  25  51 NW10G16   30.27R
$$

ILZ067-068-072-073-078-083-087-091-010200-
SOUTHEAST ILLINOIS

CITY           SKY/WX    TMP DP  RH WIND       PRES   REMARKS
LAWRENCEVILLE  CLOUDY    41  26  55 N32G41    30.21R
FAIRFIELD*     PTCLDY    40  23  50 N10G24    30.27R
HARRISBURG*    PTCLDY    42  24  50 N14G23    30.29R
$$

ABBREVIATIONS USED IN REMARKS
   TC - TEMPERATURE IN CELSIUS
  WCI - WIND CHILL INDEX
   HX - HEAT INDEX
  VSB - VISIBILITY
$$




USA.gov is the U.S. government's official web portal to all federal, state and local government web resources and services.